Theta_e
343 344 344 343 343 343 342 341 342 340 339 337 335 335 338 340 341 341 340 339 339 339 339 338 337 337 336 335 336 338 339 339 339 338 337 337 336 336 334 334 334 334 332 330 330 332 334 335 336 337 336 336 336 335 334 333 333 330 325 324 327 329
342 343 343 343 343 342 342 342 341 339 338 336 336 338 341 341 341 341 340 339 339 338 337 336 336 336 335 336 336 337 338 338 338 338 337 336 336 336 334 334 334 334 333 331 332 333 334 335 335 335 335 336 335 334 334 334 333 329 325 325 327 329
341 341 341 341 341 341 341 340 339 338 337 337 338 340 341 341 340 340 339 339 339 338 337 335 335 336 334 335 336 336 337 337 337 336 337 336 335 336 334 334 334 334 334 332 332 332 332 333 334 335 335 335 335 334 334 334 332 328 326 326 327 329
339 339 339 339 340 340 339 338 338 338 338 339 340 341 341 340 340 339 338 339 339 339 337 336 337 338 335 335 337 336 336 337 335 333 335 336 335 335 335 334 334 334 334 333 333 332 331 332 333 335 336 335 334 334 334 333 331 328 326 327 328 330
339 339 338 337 338 338 337 337 338 338 339 341 341 341 341 339 338 336 336 338 339 339 338 337 338 339 337 336 336 336 335 335 334 331 332 334 334 334 335 334 333 334 335 335 335 335 334 331 331 335 337 336 334 334 334 333 331 329 328 327 328 328
338 338 336 335 335 336 336 337 339 339 340 341 341 341 340 338 336 335 336 337 338 338 337 337 338 339 338 336 336 335 334 334 333 331 332 332 332 333 333 334 333 334 335 336 336 336 337 335 334 337 337 335 334 334 334 333 332 331 329 327 326 326
338 337 336 335 335 335 336 339 340 339 340 341 340 339 339 338 337 336 337 337 337 337 337 337 338 338 337 337 336 335 335 336 334 333 332 331 330 331 331 333 333 333 333 334 334 335 337 337 336 336 336 335 334 334 334 334 333 331 329 327 325 324
339 338 337 335 334 336 338 340 340 340 340 340 340 339 338 338 337 337 338 337 337 337 338 337 337 337 337 337 337 336 337 336 335 334 332 332 332 331 329 331 332 332 332 333 334 334 336 337 336 334 334 335 333 333 334 334 333 331 329 327 323 321
339 340 338 335 335 338 340 341 340 340 340 340 340 339 338 338 338 338 338 337 337 337 337 336 336 337 337 337 336 336 336 335 335 334 333 333 334 333 329 330 332 332 332 333 334 334 335 336 335 334 334 334 333 332 334 334 333 331 329 327 323 321
339 339 337 335 337 339 340 340 340 340 340 339 339 338 338 339 338 338 337 337 337 337 337 337 336 336 336 337 336 336 336 335 335 334 333 333 334 334 332 332 333 334 334 334 333 332 333 333 333 333 333 332 332 332 334 334 333 332 330 328 325 325
339 339 338 337 338 339 340 340 339 338 337 337 338 338 338 338 338 338 337 337 337 337 337 337 336 336 337 337 336 336 336 336 335 334 333 334 335 336 336 335 335 334 335 336 333 332 332 331 330 331 331 331 332 332 334 334 333 333 331 329 327 326
340 339 338 339 339 339 340 339 338 336 335 336 337 338 338 338 338 338 337 337 337 336 336 336 336 336 336 336 335 336 336 335 335 335 334 335 336 337 337 336 335 334 336 336 333 331 331 331 330 330 331 332 331 332 334 334 334 333 331 329 328 327
340 339 339 339 339 340 340 339 338 336 336 337 338 338 338 339 338 337 337 337 337 336 335 336 335 335 335 335 335 336 336 336 335 335 336 336 336 336 336 335 334 334 335 333 331 331 331 331 331 330 331 332 331 332 334 334 334 332 330 329 328 328
340 339 340 339 339 341 340 339 338 337 338 339 339 339 338 338 338 337 337 336 336 336 335 335 335 334 334 335 335 335 335 335 335 335 335 334 335 335 333 332 331 332 332 331 331 331 331 331 331 331 331 332 331 331 333 334 333 332 330 328 328 328
340 339 340 339 340 341 340 340 339 338 339 340 339 339 338 337 338 338 337 337 336 335 334 334 334 334 334 334 335 335 334 334 333 333 333 332 334 335 333 332 332 333 333 332 332 332 331 330 331 332 332 332 331 331 332 333 333 332 330 329 328 328
339 339 340 340 341 341 340 339 339 338 338 339 339 339 338 337 338 338 337 337 335 334 334 334 334 334 334 334 335 335 335 335 333 333 333 334 335 335 335 334 334 334 333 331 332 332 330 331 331 332 332 331 331 331 331 333 333 332 331 331 331 330
339 340 340 339 340 338 337 337 337 337 337 338 338 337 337 336 336 337 337 336 335 335 334 334 334 334 333 333 334 335 334 335 334 332 333 336 335 335 335 334 334 334 332 331 331 332 331 331 331 332 332 332 331 331 331 333 333 333 332 332 332 332
338 338 338 339 338 334 334 335 336 337 337 338 337 337 337 337 336 336 337 336 335 335 334 334 335 334 333 334 335 334 334 335 335 333 334 336 335 335 335 335 335 332 331 331 331 331 331 331 332 333 333 333 332 331 331 332 333 333 333 333 332 332
337 335 335 337 336 334 334 334 335 336 337 337 337 337 337 337 336 335 336 336 335 335 334 334 334 333 334 335 335 335 334 334 335 335 336 336 335 335 335 336 336 331 329 331 331 332 331 331 332 332 333 333 332 332 332 333 333 333 333 333 332 332
334 334 334 334 336 336 334 333 334 335 336 336 336 336 336 335 336 335 336 335 334 334 334 334 334 334 335 335 335 334 334 333 334 336 336 336 335 335 335 336 336 332 330 331 331 332 331 331 331 331 332 332 330 331 332 332 332 332 332 332 331 331
336 335 334 333 335 336 335 334 335 335 336 335 335 336 336 336 336 336 335 334 333 334 334 334 335 335 335 335 334 334 334 334 334 335 335 335 335 334 335 335 335 333 332 331 331 331 331 331 331 331 331 330 329 330 331 332 331 331 331 331 331 331
337 336 335 335 336 335 335 336 336 336 336 335 335 336 336 336 336 336 335 334 333 335 335 334 335 335 335 334 333 334 334 334 334 334 334 334 334 334 335 335 334 333 333 332 331 331 331 332 332 331 329 328 329 330 330 330 330 330 330 330 330 331
335 335 336 336 336 335 334 335 335 335 335 335 335 335 336 336 336 335 335 334 333 334 335 335 335 335 334 333 333 333 333 333 334 334 333 334 333 334 334 334 333 333 333 333 332 331 331 331 332 331 330 330 330 330 330 328 328 329 330 330 330 330
334 334 335 336 336 335 334 334 334 334 335 335 334 335 336 336 336 335 335 335 334 334 334 334 334 334 332 332 333 333 333 333 334 334 334 333 334 334 334 333 333 333 333 332 332 331 331 331 331 331 331 332 329 330 332 330 328 329 330 331 330 329
335 334 334 336 336 336 335 334 333 333 334 334 334 335 336 335 336 335 334 335 335 334 335 334 333 333 332 332 333 333 333 333 333 333 334 333 333 333 334 334 333 333 333 332 332 332 331 331 331 331 332 331 330 331 333 330 329 329 329 329 329 329
336 335 335 336 337 336 335 334 333 333 333 334 333 334 336 335 335 335 334 334 335 335 335 334 334 333 333 332 332 333 333 333 333 333 334 333 332 332 333 334 333 332 332 332 333 333 332 331 331 331 331 331 332 333 331 329 330 330 328 328 328 329
336 336 335 336 337 336 335 335 334 332 333 334 333 334 336 335 334 334 334 335 335 336 335 334 334 334 333 332 333 334 334 333 333 333 334 334 332 332 332 333 332 332 331 332 333 333 333 332 332 331 331 331 331 331 330 329 330 330 330 330 329 329
336 336 335 335 336 336 335 335 334 333 333 334 334 335 335 335 334 334 334 335 335 335 335 334 334 333 333 332 333 334 334 333 333 333 334 334 333 332 332 332 332 332 331 332 333 332 332 332 331 332 332 331 331 330 329 330 329 329 330 330 329 328
336 336 335 335 336 336 335 336 335 334 334 334 335 335 335 335 334 334 334 335 335 334 334 334 334 333 332 333 333 334 334 334 334 334 333 333 332 332 332 331 331 331 332 332 333 332 332 331 331 332 332 331 331 331 330 330 329 328 328 329 329 327
333 334 335 334 335 335 335 336 336 335 335 335 335 335 335 335 335 335 334 334 334 334 334 334 334 333 333 333 333 334 334 334 334 334 334 333 332 332 332 332 331 331 333 333 332 332 332 332 331 331 331 331 332 331 330 330 329 328 328 328 328 327
332 334 334 334 336 336 335 335 335 335 335 335 335 335 334 334 334 335 334 334 334 333 334 334 333 332 333 333 333 333 332 333 332 333 333 333 333 333 332 332 332 331 332 331 331 332 332 331 331 332 332 331 331 331 330 331 329 328 328 327 328 327
333 333 335 335 336 337 336 335 335 335 335 335 335 334 334 333 333 334 334 334 333 332 333 333 332 331 331 332 333 332 332 332 331 331 332 332 333 333 332 332 333 332 331 331 331 332 332 332 331 332 332 331 330 329 330 331 330 329 328 327 327 327
333 333 335 335 336 337 336 334 334 334 334 335 336 335 334 333 333 333 333 333 333 332 332 332 331 331 331 331 332 331 331 331 331 330 330 331 332 332 332 333 333 333 332 331 331 331 332 333 331 331 332 330 329 328 328 330 330 329 328 327 327 326
333 333 335 336 336 337 335 332 332 331 331 334 335 334 334 334 333 333 333 333 333 332 333 332 331 331 331 331 331 330 330 330 330 329 329 329 329 330 331 332 333 333 332 332 331 331 332 332 332 332 331 330 329 329 329 328 329 329 328 327 326 325
333 333 335 336 336 336 335 330 329 330 332 333 334 334 333 333 334 334 334 333 333 333 332 332 331 331 331 330 330 330 329 329 328 329 329 329 329 329 330 331 332 332 332 331 330 331 332 332 332 332 331 329 330 331 330 328 328 329 328 328 326 325
332 333 335 336 336 336 334 331 329 330 332 332 332 333 333 333 333 333 333 332 332 332 332 332 331 331 330 330 329 329 328 328 328 328 328 328 328 329 329 329 330 332 331 330 329 330 330 330 331 331 330 329 329 330 330 329 329 328 327 327 326 325
332 333 334 336 336 333 331 331 330 330 332 331 331 332 332 333 333 332 332 331 331 331 332 331 331 330 330 329 329 329 329 328 327 327 326 326 327 328 328 328 329 330 331 330 330 330 329 329 329 329 329 330 329 328 329 329 329 328 327 327 325 325
Wind_Speed
25 26 26 26 25 24 24 24 24 23 23 22 22 22 21 19 20 20 18 16 14 14 13 11 12 12 12 12 12 12 11 10 8 6 6 6 6 7 8 8 9 9 10 13 14 16 14 13 14 14 16 19 16 16 15 13 12 13 13 15 17 18
25 25 25 24 23 23 23 24 24 23 22 22 23 22 21 20 22 21 19 17 15 14 13 12 12 12 12 12 12 12 12 10 9 7 7 7 5 7 8 8 9 9 11 13 14 14 13 13 14 13 15 19 17 15 13 12 12 14 15 16 17 17
25 26 25 23 23 23 24 24 24 23 22 23 23 21 22 23 24 22 20 19 17 15 14 13 12 12 12 12 12 12 12 10 9 8 8 8 7 7 8 8 9 9 11 11 12 11 10 11 13 13 14 18 16 13 12 11 12 14 15 16 17 16
26 26 25 24 23 23 24 24 24 24 23 22 22 22 24 25 25 23 21 20 18 16 15 14 13 12 12 12 12 12 11 10 9 7 8 9 8 8 9 9 8 9 10 11 11 9 8 8 10 12 12 14 14 11 9 10 13 15 15 15 16 16
26 26 25 25 24 24 25 25 24 24 23 22 22 24 25 25 24 23 21 20 18 17 15 15 14 14 14 14 13 13 11 10 8 5 7 9 8 8 10 10 8 10 11 10 9 7 7 5 5 8 9 9 12 9 8 10 12 12 12 14 15 14
27 27 26 26 26 25 25 25 24 24 23 23 23 25 25 25 24 22 21 21 19 17 16 16 15 14 14 14 14 12 11 9 7 5 6 8 7 7 11 11 9 11 10 9 7 5 6 4 4 6 5 7 9 7 9 9 9 10 11 14 15 14
28 28 27 27 27 26 25 25 24 24 24 23 24 25 25 25 23 22 21 21 20 18 17 17 15 14 14 14 13 12 9 8 6 5 6 7 7 6 10 11 11 11 9 8 4 5 9 7 5 6 6 8 7 7 8 8 7 9 12 14 15 15
29 28 28 28 28 27 25 23 23 24 24 23 23 24 23 23 22 21 20 20 21 19 18 18 16 14 14 14 13 11 9 7 6 4 5 8 8 5 7 11 10 9 8 5 3 5 10 11 7 6 7 8 7 7 8 7 7 10 12 14 15 14
29 28 29 29 29 27 25 23 23 24 24 23 22 22 21 21 20 20 20 20 20 19 18 18 17 15 14 13 12 11 8 6 5 3 5 7 7 4 6 10 9 7 6 4 6 5 11 11 8 7 7 7 6 7 9 8 9 12 13 14 15 14
29 29 30 29 28 27 26 24 24 24 24 24 23 21 20 19 19 19 19 19 19 18 18 17 17 15 13 13 12 11 7 6 6 5 6 7 7 7 8 9 8 7 6 4 2 3 11 12 8 7 6 6 7 9 10 10 10 12 14 14 15 14
28 29 28 26 25 26 27 26 24 24 24 23 24 22 19 19 18 17 17 18 18 17 17 16 17 16 13 12 12 10 8 8 8 8 8 7 7 9 10 10 11 11 6 2 7 9 11 13 9 6 6 6 8 11 11 11 11 12 13 13 14 14
26 27 26 24 25 26 26 26 24 24 24 23 23 21 19 17 16 15 16 17 18 17 16 16 17 16 12 12 12 10 9 10 9 9 10 8 7 8 9 9 11 12 7 3 9 12 11 12 10 7 7 7 9 11 12 11 10 11 13 13 13 14
26 26 27 26 26 25 24 25 24 22 23 22 21 20 18 16 14 16 17 16 17 16 15 16 16 14 11 12 12 10 8 10 10 10 10 8 8 8 9 9 10 11 8 5 9 13 12 11 10 8 8 9 10 12 14 12 11 12 14 14 13 13
26 28 30 28 26 24 23 24 23 21 20 19 19 19 17 15 14 16 16 15 15 15 15 15 14 12 12 13 12 10 9 9 10 10 9 8 9 10 9 9 10 11 9 8 11 13 11 11 8 8 10 10 10 12 14 13 12 13 14 14 13 13
26 30 30 28 26 24 24 24 22 20 18 17 18 18 17 16 15 15 15 14 14 14 15 15 14 13 14 14 12 12 11 10 10 10 9 9 9 10 9 9 10 10 9 12 14 12 9 9 9 9 10 10 10 12 14 14 14 15 15 15 14 13
26 30 28 26 25 24 23 22 20 17 16 16 17 17 18 17 16 16 15 14 15 15 15 15 14 14 14 14 12 12 12 12 12 11 10 10 9 10 9 10 11 8 11 14 12 12 11 10 10 11 12 12 12 13 15 15 15 15 14 14 13 13
26 27 27 26 22 20 21 19 17 15 14 15 16 17 16 16 17 17 16 14 15 15 14 14 15 14 13 13 14 13 13 13 13 13 13 12 11 11 11 12 10 8 13 16 12 12 13 10 11 14 13 13 13 14 15 16 15 13 13 13 12 12
21 19 22 25 15 12 15 14 15 14 13 14 14 15 14 13 15 17 18 17 15 14 13 14 15 14 12 13 14 13 13 13 13 13 15 14 12 12 11 11 10 15 17 15 12 12 12 13 15 15 15 14 14 14 15 15 14 12 12 12 12 11
12 11 16 21 13 10 12 12 13 11 11 14 14 14 13 12 14 16 18 18 16 14 12 13 13 13 11 12 13 13 14 14 13 12 14 14 12 12 11 11 10 17 18 12 10 12 14 16 16 13 13 12 11 13 14 14 13 11 11 12 12 11
10 15 17 18 17 17 15 12 11 10 12 16 15 15 14 13 15 16 17 17 17 15 14 14 13 12 11 12 14 14 14 15 14 13 13 13 12 11 11 12 11 13 19 17 15 15 16 17 16 13 10 9 8 9 12 14 12 11 11 11 10 11
10 15 16 20 25 25 20 17 17 16 16 17 16 15 13 14 15 16 16 17 18 17 16 17 16 15 15 16 17 15 14 15 15 14 13 13 13 12 11 12 12 11 16 21 21 18 19 19 18 14 8 7 10 10 10 12 10 9 10 10 9 11
18 21 21 22 25 25 24 23 24 24 22 20 18 16 14 14 15 16 16 18 20 18 17 19 19 18 18 18 17 16 15 15 14 14 13 14 14 14 13 12 13 12 13 17 20 20 22 19 16 13 9 7 8 8 7 8 9 9 8 8 9 11
22 22 22 23 23 23 24 23 21 23 24 22 19 17 16 16 17 17 18 19 21 20 17 19 19 19 19 18 16 15 15 14 14 13 13 14 14 14 14 12 13 14 14 15 17 20 21 16 16 17 12 6 3 3 3 4 7 9 8 7 8 10
26 25 26 27 25 23 22 21 18 19 22 20 17 16 17 19 20 21 20 21 22 22 19 18 20 20 18 17 15 14 14 14 13 12 13 13 13 15 14 13 12 12 13 16 17 18 16 15 21 21 9 3 2 2 1 2 5 6 7 8 7 9
30 29 28 31 29 25 24 21 18 18 19 16 16 17 18 21 23 23 22 22 22 22 20 19 19 19 18 17 14 13 14 13 12 12 12 11 12 14 14 13 13 11 13 15 16 17 13 15 23 20 10 7 5 1 1 4 6 5 6 8 8 9
31 30 31 33 32 31 30 27 25 24 21 17 17 20 22 24 25 24 23 22 22 21 19 19 18 18 17 16 14 13 13 12 12 13 12 11 11 12 12 13 13 13 13 13 14 17 15 16 19 14 11 10 3 4 10 9 5 3 5 8 8 9
30 29 30 31 31 33 34 33 31 30 27 23 23 23 24 25 25 25 23 22 21 20 18 18 17 16 15 15 14 13 12 11 11 12 11 10 11 11 12 13 13 13 14 15 17 19 18 18 16 11 11 9 4 12 22 15 6 4 4 5 8 11
31 29 29 27 28 34 37 37 35 32 30 28 27 26 25 24 23 23 22 22 21 19 17 17 16 15 14 14 15 13 11 10 10 11 11 10 9 9 10 11 12 13 14 18 20 19 20 19 17 13 10 8 8 18 21 13 14 13 6 3 6 9
25 25 26 24 22 26 30 32 34 33 31 29 28 26 24 23 22 22 21 21 20 20 19 18 16 16 15 16 17 16 13 12 11 11 12 11 9 10 10 12 14 14 15 18 18 17 19 18 17 15 12 12 16 18 14 12 17 17 10 7 4 4
11 14 20 21 17 18 20 22 26 31 31 29 26 24 24 23 21 21 21 21 21 21 19 18 16 16 16 17 17 17 15 13 12 12 12 13 13 13 13 14 15 15 14 16 16 15 16 15 15 15 13 16 18 16 14 12 15 17 12 8 6 6
3 6 12 17 16 14 17 18 21 26 29 27 25 26 26 24 22 22 21 21 21 20 18 17 16 16 17 17 16 17 15 12 13 14 12 13 14 13 14 14 14 13 13 14 16 16 15 14 15 14 12 15 17 17 15 13 16 19 14 9 9 8
4 5 9 17 18 13 16 19 19 23 26 26 26 28 28 27 25 23 22 21 20 18 17 16 16 16 17 16 16 16 16 15 15 15 13 13 14 12 13 14 13 13 13 14 16 16 14 14 14 14 12 12 13 14 15 16 20 21 17 17 16 9
3 7 10 17 19 15 17 20 18 20 24 25 27 27 28 28 26 24 23 21 19 18 18 17 17 17 16 15 16 16 17 16 14 14 13 14 13 12 14 14 12 12 12 12 14 14 13 13 12 13 12 11 10 11 13 17 19 19 20 23 20 13
5 11 14 17 20 18 16 15 14 15 19 22 26 26 25 26 25 23 22 21 20 18 18 18 18 18 18 17 17 17 17 15 12 13 14 14 14 14 14 13 12 12 12 11 12 12 13 12 12 12 11 11 12 11 12 15 17 19 24 25 22 18
8 13 16 16 17 17 15 12 9 10 14 18 23 25 23 24 24 21 19 19 19 18 17 18 18 18 18 17 17 17 17 15 13 15 16 16 15 15 14 14 13 13 12 11 11 12 13 13 13 11 10 12 13 11 12 15 16 20 27 28 26 25
8 12 15 13 13 14 13 12 10 10 12 14 19 23 22 21 20 19 18 18 18 18 18 19 20 19 18 18 18 18 18 16 14 15 16 16 16 15 14 14 13 12 13 12 12 12 12 12 13 12 11 12 12 12 13 14 16 21 26 27 27 28
12 14 16 14 13 12 11 12 13 15 15 14 17 21 22 21 20 19 19 19 18 19 19 20 21 20 19 19 19 18 18 16 14 14 15 15 15 14 13 14 14 13 12 12 12 12 11 13 13 12 12 12 11 13 14 15 16 20 24 26 26 27
Wind_Direction
160 161 162 162 162 164 166 168 166 164 163 161 162 162 161 163 166 165 164 164 163 161 163 166 170 177 182 184 183 180 174 166 161 155 139 123 121 134 130 117 115 118 120 116 122 127 121 110 93 86 74 63 88 117 110 96 83 79 91 99 99 99
161 163 164 162 164 164 167 168 166 165 164 162 163 162 161 164 166 166 165 164 165 166 166 168 171 180 185 188 188 184 180 170 166 158 136 127 127 140 140 130 122 121 129 129 130 127 119 109 91 89 79 73 102 121 105 93 81 83 93 99 103 105
162 165 165 164 165 165 167 168 166 166 164 164 166 165 162 162 163 165 167 166 168 170 169 169 170 176 181 187 187 184 182 175 178 174 156 146 139 148 151 143 134 128 135 139 141 137 126 112 92 93 84 80 108 120 105 97 86 88 93 97 102 104
163 166 166 165 166 166 169 169 167 167 166 167 169 165 161 161 162 165 169 169 171 173 171 169 168 169 175 183 184 182 178 176 185 180 170 168 155 155 161 158 148 136 137 138 140 142 140 130 103 91 77 84 113 117 103 102 95 93 93 98 103 107
165 169 168 167 167 167 169 170 169 167 167 170 168 163 160 161 163 167 171 173 175 174 172 170 169 170 175 179 179 178 177 177 185 171 170 179 170 165 168 168 159 147 141 140 141 138 143 156 125 90 63 89 120 118 110 110 103 98 98 104 112 118
169 173 171 169 167 166 169 170 168 166 168 169 168 163 160 163 167 171 173 176 179 178 176 174 174 175 176 179 180 179 178 178 179 167 167 173 175 178 175 173 167 158 152 154 163 168 173 180 144 123 91 106 122 126 124 116 105 103 109 111 113 115
174 175 173 170 167 168 169 169 166 166 167 169 170 167 164 168 171 174 175 178 181 182 181 178 179 179 178 180 181 179 175 169 164 166 169 162 163 172 180 181 172 169 169 171 194 227 204 184 161 161 150 137 132 141 138 122 109 111 114 112 111 114
176 174 172 170 169 169 167 168 170 170 171 174 175 172 171 172 174 176 178 181 182 183 185 182 180 180 178 178 178 175 171 167 159 158 167 163 158 156 181 182 170 174 183 191 264 247 194 179 187 190 170 162 151 156 155 134 120 120 117 111 112 116
176 174 173 173 171 168 166 171 176 176 176 180 182 178 177 176 176 178 181 185 187 187 188 186 181 178 176 175 172 167 167 177 176 174 180 178 182 186 181 170 158 170 199 247 285 233 184 174 188 189 173 172 167 172 164 142 130 124 118 114 113 116
178 177 176 174 171 168 170 175 179 181 180 183 186 183 181 181 181 182 186 191 196 195 192 188 180 175 176 176 170 165 176 201 204 209 214 207 209 208 186 176 181 191 213 256 315 176 176 166 162 167 161 162 167 172 162 147 140 125 119 117 115 117
182 180 174 170 172 175 178 180 181 184 183 183 185 184 184 185 185 187 191 196 198 198 194 186 179 176 178 176 169 167 185 201 203 205 208 199 187 182 172 177 191 187 180 121 90 110 149 148 141 141 134 143 161 169 165 159 149 128 123 123 121 124
184 180 170 168 176 180 184 186 186 185 182 182 183 185 186 188 191 190 192 194 192 193 191 186 181 180 180 177 173 173 182 190 194 192 190 187 175 172 171 166 176 179 171 120 105 108 123 129 126 120 126 151 164 170 170 164 153 136 132 132 130 130
184 177 170 175 179 180 188 191 190 186 182 182 183 187 188 187 188 186 188 192 192 191 188 188 187 184 180 173 171 171 175 182 186 183 177 180 180 180 182 174 176 181 179 155 122 117 118 115 113 123 143 161 162 166 168 163 158 147 140 138 137 137
182 176 174 180 179 178 190 193 191 187 181 180 180 184 185 181 181 183 186 189 192 189 181 184 188 186 176 164 160 161 164 170 174 181 182 180 174 169 170 171 169 167 159 140 124 121 122 115 118 140 149 157 160 159 164 166 161 152 144 139 139 141
181 178 175 180 179 178 186 190 191 188 181 176 174 175 173 172 175 178 179 178 179 179 179 184 185 179 171 163 160 162 167 165 160 166 178 175 161 157 158 154 157 158 137 125 123 121 125 130 143 155 150 157 161 156 163 168 161 153 147 142 142 143
180 179 179 182 178 175 178 181 186 187 182 177 172 172 172 172 176 174 172 171 168 170 178 184 185 181 175 172 167 166 171 167 157 154 161 167 163 163 165 160 167 167 136 129 129 128 132 138 140 146 151 157 160 162 166 165 159 154 153 152 153 151
177 176 181 184 175 173 177 170 169 174 176 178 176 176 178 179 179 176 174 173 170 169 174 181 187 186 182 181 173 171 174 166 160 158 162 173 174 172 172 171 166 140 137 143 146 145 144 145 141 140 144 148 158 166 167 163 160 157 161 164 163 160
177 168 173 180 166 155 168 160 159 166 168 175 181 176 176 180 179 180 181 178 175 172 175 178 184 188 183 178 172 172 172 165 165 166 170 177 176 173 170 173 150 118 131 151 155 159 157 147 142 141 141 144 158 164 161 162 163 163 168 173 171 166
163 133 150 176 173 147 152 157 168 173 172 177 182 170 164 175 183 188 186 184 184 182 183 179 180 187 181 172 170 172 173 170 170 171 174 176 173 173 166 170 156 118 120 141 154 157 156 143 137 145 150 148 159 162 158 160 163 166 170 173 174 172
114 112 125 153 167 164 149 145 161 166 178 186 182 170 166 177 188 195 194 192 192 187 187 184 180 184 180 177 179 180 178 174 175 176 178 176 169 173 170 171 173 130 119 130 139 145 157 150 131 132 146 139 139 152 160 158 154 162 167 168 169 169
159 164 161 153 160 171 164 158 165 168 182 193 185 172 174 184 192 200 201 195 191 186 186 185 181 183 185 188 188 186 182 176 179 182 182 181 174 175 177 174 173 147 130 136 139 144 156 149 126 120 134 120 107 120 152 158 149 156 162 162 164 165
192 191 183 164 163 175 180 175 174 175 183 193 187 172 173 189 196 200 198 187 184 184 183 182 181 184 189 191 190 189 188 182 181 183 184 184 181 177 173 173 168 151 140 141 143 148 151 144 130 129 135 112 88 97 131 145 143 150 152 155 165 167
194 184 168 160 166 178 186 185 181 182 185 188 185 173 170 183 187 187 186 181 185 188 182 181 184 188 191 192 190 190 191 187 182 181 185 184 183 178 167 165 165 151 146 145 147 155 154 149 142 137 132 114 93 101 100 111 129 139 145 148 163 169
189 180 166 163 170 176 181 186 189 191 189 185 181 171 166 172 176 178 180 179 186 189 184 183 188 191 193 193 190 189 190 190 185 181 183 182 180 176 164 159 159 155 161 156 152 163 168 163 153 144 136 102 121 171 150 128 120 118 138 148 161 170
187 183 174 167 171 174 171 177 189 189 185 179 170 164 164 170 175 177 180 180 182 185 185 186 187 189 192 192 188 189 192 188 185 184 182 181 179 174 164 160 156 159 181 172 157 164 175 175 163 155 153 137 132 198 214 152 132 112 132 145 156 163
189 188 180 170 171 173 169 173 181 182 181 172 164 171 174 174 176 176 179 181 181 182 186 186 186 187 189 191 187 189 193 187 183 187 183 179 178 170 166 171 164 164 185 184 164 160 163 173 174 175 175 166 184 196 163 154 144 113 131 136 138 149
190 191 184 175 175 173 170 172 175 178 182 177 172 180 183 178 178 178 178 180 181 181 186 187 185 184 184 186 185 185 191 188 185 187 188 189 181 163 166 179 171 167 181 182 176 168 161 168 176 184 188 193 227 175 161 157 155 142 136 130 125 134
190 192 186 181 181 177 172 171 170 172 179 181 178 179 181 180 179 181 180 181 182 180 183 185 179 178 181 183 180 177 184 190 188 185 188 200 194 169 175 183 167 167 178 178 181 175 163 166 168 167 179 181 162 161 162 161 154 142 128 117 118 126
188 189 187 186 186 183 176 171 168 168 173 181 180 175 175 177 178 180 179 179 181 179 181 183 178 179 184 184 181 176 177 184 184 181 184 191 187 173 179 185 173 172 175 175 183 180 166 168 168 161 160 150 143 149 156 158 151 140 131 136 130 122
181 183 189 189 187 187 183 172 168 168 170 175 175 168 166 171 176 179 176 175 179 180 182 184 182 184 185 185 184 177 172 178 179 179 182 180 176 176 180 185 181 179 176 174 180 179 172 173 169 161 157 152 149 149 148 149 149 144 139 133 129 141
218 192 191 190 186 187 187 178 174 172 170 170 167 163 163 167 174 179 179 177 178 181 183 186 185 185 185 185 182 173 163 170 182 181 183 181 177 179 183 184 182 179 177 175 174 175 175 174 168 163 164 166 166 164 161 159 157 154 150 138 134 144
257 205 186 186 183 186 190 183 178 176 172 168 165 165 165 168 174 181 183 180 179 181 179 181 184 182 182 180 175 167 155 161 181 181 176 183 182 177 177 178 176 172 174 175 175 176 173 167 168 168 167 173 179 180 175 167 164 164 161 152 145 141
258 203 187 182 183 192 196 187 180 177 171 167 168 170 168 170 174 180 183 180 178 177 172 170 174 172 167 161 156 148 142 152 176 177 169 173 174 171 174 175 169 166 169 172 174 178 177 168 168 171 167 166 171 176 175 168 169 172 165 153 146 141
221 203 189 183 186 192 194 190 189 182 171 170 173 174 172 171 173 176 178 177 174 171 166 161 161 157 149 145 141 137 140 150 161 167 169 168 160 157 164 168 166 165 169 172 172 176 178 170 167 172 172 168 164 164 170 172 173 171 163 155 150 147
199 194 186 182 183 188 188 185 187 180 172 174 176 175 174 172 172 174 173 170 167 165 161 155 151 147 143 145 148 148 154 159 150 145 154 160 157 153 154 157 162 166 170 174 175 175 176 173 169 170 172 173 171 166 166 171 172 169 166 161 157 153
166 185 186 179 179 187 186 172 167 175 177 178 176 173 173 172 170 170 167 163 162 162 161 155 149 147 148 153 154 152 154 161 160 153 153 156 156 158 159 157 154 161 169 174 174 173 176 177 174 172 168 167 172 170 164 168 169 169 170 166 161 160
154 178 183 179 179 184 179 160 161 175 181 186 179 173 173 170 166 167 164 160 161 163 162 158 154 152 154 154 154 152 150 156 165 164 159 155 155 157 157 153 146 145 155 163 166 169 172 171 169 170 164 162 172 167 160 167 167 167 173 170 165 167